This demonstration page uses our WeatherBlox Daily Observations layout. Learn more.

Left ArrowRight Arrow

Hourly Observations for February 18, 2016

Temp ( °F °C ) Dew Point ( °F °C ) Humidity (%) Winds ( mph kmh ) Pressure ( in mb ) Visibility ( mi km ) Precip ( " mm )
12:53 am 00:53 Clear 29 -1.7 28 -2.2 96 96 Calm 29.45 997 10 16 0.00 0.00
1:53 am 01:53 Clear with Mist and Fog 25 -3.9 25 -3.9 100 100 Calm 29.43 997 3 5 0.00 0.00
1:55 am 01:55 Mostly Clear with Mist and Fog 25 -3.9 25 -3.9 100 100 SE 3 6 29.53 1000 2 3 0.00 0.00
2:02 am 02:02 Mostly Clear with Mist and Fog 27 -3 25 -4 93 93 Calm 29.53 1000 2 3 0.00 0.00
2:13 am 02:13 Mostly Cloudy with Mist and Fog 24 -4.4 24 -4.4 100 100 ESE 3 6 29.53 1000 1 1 0.00 0.00
2:53 am 02:53 Mostly Cloudy with Freezing Fog 24 -4.4 24 -4.4 100 100 ESE 3 6 29.41 996 1 1 0.00 0.00
3:15 am 03:15 Mostly Cloudy with Freezing Fog 24 -4.4 23 -5 96 96 ESE 5 7 29.50 999 0 0 0.00 0.00
3:22 am 03:22 Mostly Cloudy with Mist and Fog 25 -4 23 -5 93 93 SE 3 6 29.50 999 1 2 0.00 0.00
3:27 am 03:27 Mostly Cloudy with Mist and Fog 24 -4.4 23 -5 96 96 Calm 29.50 999 2 3 0.00 0.00
3:38 am 03:38 Mostly Cloudy with Mist and Fog 25 -4 25 -4 100 100 NE 3 6 29.50 999 1 2 0.00 0.00
3:48 am 03:48 Mostly Cloudy with Freezing Fog 25 -4 25 -4 100 100 Calm 29.50 999 1 1 0.00 0.00
3:53 am 03:53 Mostly Cloudy with Freezing Fog 25 -3.9 25 -3.9 100 100 Calm 29.40 996 0 0 0.00 0.00
4:16 am 04:16 Mostly Cloudy with Freezing Fog 23 -5 23 -5 100 100 Calm 29.53 1000 1 1 0.00 0.00
4:23 am 04:23 Mostly Cloudy with Freezing Fog 23 -5 22 -5.6 96 96 Calm 29.53 1000 0 0 0.00 0.00
4:33 am 04:33 Mostly Cloudy with Freezing Fog 23 -5 22 -5.6 96 96 Calm 29.53 1000 1 1 0.00 0.00
4:53 am 04:53 Mostly Cloudy with Freezing Fog 22 -5.6 22 -5.6 100 100 Calm 29.39 995 0 0 0.00 0.00
5:09 am 05:09 Mostly Cloudy with Mist and Fog 23 -5 22 -5.6 96 96 Calm 29.47 998 1 1 0.00 0.00
5:50 am 05:50 Mostly Cloudy with Mist and Fog 21 -6 21 -6 100 100 E 3 6 29.50 999 2 3 0.00 0.00
5:53 am 05:53 Partly Cloudy with Mist and Fog 22 -5.6 21 -6.1 96 96 Calm 29.38 995 4 6 0.00 0.00
6:04 am 06:04 Mostly Cloudy with Mist and Fog 23 -5 21 -6 93 93 ENE 3 6 29.47 998 5 8 0.00 0.00
6:07 am 06:07 Mostly Cloudy with Mist and Fog 23 -5 21 -6.1 92 92 NE 3 6 29.47 998 2 2 0.00 0.00
6:09 am 06:09 Mostly Cloudy with Mist and Fog 23 -5 22 -5.6 96 96 Calm 29.47 998 1 1 0.00 0.00
6:27 am 06:27 Mostly Cloudy with Mist and Fog 24 -4.4 23 -5 96 96 Calm 29.44 997 1 2 0.00 0.00
6:49 am 06:49 Mostly Cloudy with Mist and Fog 25 -4 23 -5 93 93 Calm 29.44 997 2 3 0.00 0.00
6:53 am 06:53 Mostly Cloudy with Mist and Fog 25 -3.9 23 -5 92 92 ENE 3 6 29.35 994 6 10 0.00 0.00
7:00 am 07:00 Partly Cloudy 23 -5 23 -5 100 100 Calm 29.44 997 10 16 0.00 0.00
7:53 am 07:53 Sunny 28 -2.2 27 -2.8 96 96 E 6 9 29.33 993 10 16 0.00 0.00
8:53 am 08:53 Sunny 30 -1.1 29 -1.7 96 96 E 8 13 29.30 992 10 16 0.00 0.00
9:53 am 09:53 Sunny 32 0 32 0 100 100 Calm 29.28 991 10 16 0.00 0.00
10:53 am 10:53 Mostly Cloudy 35 1.7 32 0 89 89 WSW 3 6 29.27 991 10 16 0.00 0.00
11:53 am 11:53 Mostly Cloudy 36 2.2 32 0 86 86 SW 5 7 29.27 991 10 16 0.00 0.00
12:53 pm 12:53 Mostly Sunny 41 5 33 0.6 73 73 W 7 11 29.22 990 10 16 0.00 0.00
1:53 pm 13:53 Partly Cloudy 46 7.8 34 1.1 63 63 VRB 3 6 29.20 989 10 16 0.00 0.00
2:53 pm 14:53 Cloudy 50 10 35 1.7 57 57 E 5 7 29.19 988 10 16 0.00 0.00
3:53 pm 15:53 Cloudy with Light Rain 51 10.6 40 4.4 66 66 W 25 41 29.21 989 10 16 0.00 0.03
4:00 pm 16:00 Cloudy 52 11 37 3 58 58 W 23 37 29.15 987 10 16 0.00 0.00
4:53 pm 16:53 Cloudy 49 9.4 36 2.2 61 61 SW 15 24 29.26 991 10 16 0.01 0.25
5:53 pm 17:53 Cloudy 48 8.9 25 -3.9 41 41 W 32 52 29.31 993 10 16 0.00 0.00
6:53 pm 18:53 Mostly Clear 46 7.8 23 -5 40 40 W 32 52 29.34 994 10 16 0.00 0.00
7:53 pm 19:53 Clear 43 6.1 25 -3.9 49 49 WSW 14 22 29.40 996 10 16 0.00 0.00
8:53 pm 20:53 Clear 37 2.8 26 -3.3 65 65 SW 14 22 29.40 996 10 16 0.00 0.00
9:53 pm 21:53 Clear 36 2.2 24 -4.4 62 62 W 9 15 29.43 997 10 16 0.00 0.00
10:53 pm 22:53 Clear 34 1.1 24 -4.4 67 67 SW 14 22 29.44 997 10 16 0.00 0.00
11:53 pm 23:53 Clear 35 1.7 26 -3.3 70 70 SW 16 26 29.44 997 10 16 0.00 0.00

Powered by AerisWeather